Content
SEND FEEDBACK

Daily
Averages
Monthly
Summary
Philippines

QUEZON CITY, PHILIPPINES


Home > Asia > Philippines
Elevation: 46 meters     Latitude: 14 39N     Longitude: 121 03E

WEATHER
 
SELECT A DAY
Number of Records: 179,047;   Date Range: 7/1/96 - 12/23/14
 
SHARE

PRINT THIS DATA

[ ← Previous Day ]
WEATHER ALMANAC - 4 FEBRUARY, 2013
[ Next Day → ]
[ °F ]   °C
Weather ElementAverageHighLow
Temperature27.4 °C32 °C (3:00 pm)23.3 °C (5:00 am)
Dewpoint20.1 °C21.1 °C (2:00 am)18.9 °C (8:00 am)
Humidity63.7 %78 % (1:00 am)39 % (2:00 pm)
Barometer1014.9 hPa1016.9 hPa (11:00 pm)1012.2 hPa (3:00 pm)
Wind Speed13.4 km/h25.9 km/h (5:00 pm)
Weather ElementAverage
Visibility10 km
Wind DirectionE (89 °)

Weather ElementTotal
Precipitation---
Cooling Degree Days9.3 (Base 18.3)
Growing Degree Days17.7 (Base 10)
Averaged from 29 records on 4 February, 2013
WEATHER CONDITIONS BREAKOUT
WIND DIRECTION BREAKOUT
WEATHER BY HOUR - 4 FEBRUARY, 2013
[ °F ]   °C
Local TimeTemperatureDewpointHumidityBarometerVisibilityWind DirectionWind SpeedGust SpeedPrecipitationEventsConditions
1:00 AM25 °C21 °C78 %1015.2 hPa10 kmEast (80°)11.1 km/hPartly Cloudy
2:00 AM24.4 °C21.1 °C76 %1015.2 hPa9.7 kmEast (100°)3.5 km/hHaze
2:00 AM25 °C21 °C78 %1015.2 hPa10 kmEast (100°)5.6 km/hPartly Cloudy
3:00 AM25 °C20 °C74 %1014.2 hPa10 kmESE (110°)7.4 km/hPartly Cloudy
4:00 AM24 °C20 °C78 %1014.2 hPa10 kmVariable3.7 km/hPartly Cloudy
5:00 AM23.3 °C20 °C76 %1014.6 hPa9.7 kmNNE (30°)3.5 km/hHaze
5:00 AM24 °C20 °C78 %1014.2 hPa10 kmNNE (30°)5.6 km/hPartly Cloudy
6:00 AM24 °C20 °C78 %1015.2 hPa10 kmNE (40°)9.3 km/hPartly Cloudy
7:00 AM24 °C19 °C73 %1015.2 hPa10 kmENE (70°)7.4 km/hPartly Cloudy
8:00 AM26.1 °C18.9 °C57 %1015.6 hPa9.7 kmEast (80°)7.2 km/hHaze
8:00 AM26 °C20 °C69 %1016.3 hPa10 kmEast (80°)7.4 km/hPartly Cloudy
9:00 AM28 °C20 °C62 %1016.3 hPa10 kmEast (100°)16.7 km/hPartly Cloudy
10:00 AM30 °C20 °C55 %1016.3 hPa10 kmESE (110°)18.5 km/hPartly Cloudy
11:00 AM31 °C19 °C49 %1016.3 hPa10 kmESE (110°)24.1 km/hPartly Cloudy
11:00 AM30.6 °C18.9 °C40 %1015.6 hPa9.7 kmESE (110°)25.3 km/hPartly Cloudy
12:00 PM31 °C20 °C52 %1015.2 hPa10 kmESE (110°)22.2 km/hPartly Cloudy
1:00 PM31 °C19 °C49 %1013.2 hPa10 kmESE (110°)22.2 km/hPartly Cloudy
2:00 PM31.7 °C19.4 °C39 %1012.5 hPa9.7 kmEast (100°)21.6 km/hPartly Cloudy
2:00 PM31 °C20 °C52 %1013.2 hPa10 kmEast (100°)22.2 km/hPartly Cloudy
3:00 PM32 °C21 °C52 %1012.2 hPa10 kmESE (110°)18.5 km/hPartly Cloudy
4:00 PM31 °C19 °C49 %1012.2 hPa10 kmESE (110°)22.2 km/hPartly Cloudy
5:00 PM30 °C19 °C51 %1013.2 hPa10 kmESE (110°)25.9 km/hPartly Cloudy
7:00 PM28 °C21 °C66 %1014.2 hPa10 kmEast (100°)16.7 km/hPartly Cloudy
8:00 PM27.2 °C20.6 °C60 %1015.6 hPa9.7 kmEast (90°)7.2 km/hScattered Clouds
8:00 PM27 °C21 °C70 %1016.3 hPa10 kmEast (90°)11.1 km/hPartly Cloudy
9:00 PM27 °C21 °C70 %1016.3 hPa10 kmEast (90°)11.1 km/hPartly Cloudy
10:00 PM26 °C21 °C74 %1016.3 hPa10 kmEast (90°)7.4 km/hPartly Cloudy
11:00 PM26.1 °C21.1 °C68 %1016.9 hPa9.7 kmESE (110°)10.8 km/hHaze
11:00 PM26 °C21 °C74 %1016.3 hPa10 kmESE (110°)9.3 km/hPartly Cloudy
Hourly data recorded from RPLL, located 0 kilometers away from Quezon City, Philippines







STORIES FROM OUR PARTNERS